Tekamah, NE

2:40 PM CST on February 26, 2017 (GMT -0600)
Tekamah

Weather History for KTQE - October, 2012

Change the Weather History Date:

Thursday, October 11, 2012

  Actual Average Record
Temperature  
Mean Temperature 51 °F -  
Max Temperature 63 °F 67 °F 96 °F (2015)
Min Temperature 36 °F 40 °F 22 °F (1987)
Degree Days  
Heating Degree Days 14    
Growing Degree Days 1 (Base 50)    
Moisture  
Dew Point 29 °F    
Average Humidity 46    
Maximum Humidity 62    
Minimum Humidity 31    
Precipitation  
Precipitation 0.00 in - - ()
Sea Level Pressure  
Sea Level Pressure 30.13 in    
Wind  
Wind Speed 12 mph (North)    
Max Wind Speed 24 mph    
Max Gust Speed 31 mph    
Visibility 10 miles    
Events      
Averages and records for this station are not official NWS values.
T = Trace of Precipitation, MM = Missing Value Source: NWS Daily Summary

Daily Weather History Graph

Daily Weather History Graph

Search for Another Location

Airport or City:

Trip Planner

Search our weather history database for the weather conditions in past years. The results will help you decide how hot, cold, wet, or windy it might be!

Date:

Astronomy

Oct. 11, 2012 Rise Set
Actual Time 7:33 AM CDT 6:48 PM CDT
Civil Twilight 7:05 AM CDT 7:16 PM CDT
Nautical Twilight 6:32 AM CDT 7:48 PM CDT
Astronomical Twilight 6:00 AM CDT 8:21 PM CDT
Moon 3:09 AM CDT (10/11) 4:28 PM CDT (10/11)
Length of Visible Light 12h 11m
Length of Day
11h 15m
Waning Crescent, 18% of the Moon is Illuminated
Oct 11
Waning Crescent
Oct 15
New
Oct 21
First Quarter
Oct 29
Full
Nov 6
Last Quarter

Hourly Weather History & Observations

Time (CDT) Temp. Windchill Dew Point Humidity Pressure Visibility Wind Dir Wind Speed Gust Speed Precip Events Conditions
12:54 AM 43.0 °F 37.7 °F 25.0 °F 49% 30.01 in 10.0 mi South 9.2 mph - N/A   Clear
1:54 AM 46.9 °F - 27.0 °F 46% 29.99 in 10.0 mi South 12.7 mph - N/A   Clear
2:54 AM 45.0 °F 39.7 °F 28.0 °F 52% 30.00 in 10.0 mi South 10.4 mph - N/A   Clear
3:54 AM 46.9 °F - 28.9 °F 50% 29.99 in 10.0 mi SSW 12.7 mph - N/A   Clear
4:54 AM 46.9 °F - 30.0 °F 52% 29.98 in 10.0 mi SSW 13.8 mph - N/A   Clear
5:54 AM 45.0 °F 41.2 °F 28.9 °F 53% 29.98 in 10.0 mi SSW 6.9 mph - N/A   Clear
6:54 AM 48.0 °F - 30.0 °F 50% 29.99 in 10.0 mi SSW 11.5 mph - N/A   Clear
7:54 AM 45.0 °F 39.7 °F 30.0 °F 56% 30.00 in 9.0 mi South 10.4 mph - N/A   Clear
8:54 AM 51.1 °F - 32.0 °F 48% 30.05 in 10.0 mi SW 8.1 mph - N/A   Clear
9:54 AM 54.0 °F - 33.1 °F 45% 30.07 in 10.0 mi WSW 8.1 mph - N/A   Clear
10:54 AM 59.0 °F - 32.0 °F 36% 30.07 in 10.0 mi NNW 8.1 mph - N/A   Clear
11:54 AM 59.0 °F - 32.0 °F 36% 30.10 in 10.0 mi NNE 15.0 mph - N/A   Clear
12:54 PM 63.0 °F - 32.0 °F 31% 30.11 in 9.0 mi North 15.0 mph - N/A   Clear
1:54 PM 61.0 °F - 33.1 °F 35% 30.12 in 10.0 mi NNE 24.2 mph - N/A   Clear
2:54 PM 59.0 °F - 33.1 °F 38% 30.14 in 10.0 mi NNE 24.2 mph 31.1 mph N/A   Clear
3:54 PM 57.0 °F - 32.0 °F 39% 30.17 in 10.0 mi NNE 17.3 mph 25.3 mph N/A   Clear
5:54 PM 54.0 °F - 27.0 °F 35% 30.21 in 10.0 mi NE 19.6 mph - N/A   Clear
6:54 PM 51.1 °F - 26.1 °F 38% 30.24 in 10.0 mi NE 15.0 mph - N/A   Clear
7:54 PM 46.0 °F 41.4 °F 26.1 °F 46% 30.29 in 10.0 mi North 9.2 mph - N/A   Clear
8:54 PM 41.0 °F 36.4 °F 25.0 °F 53% 30.33 in 10.0 mi North 6.9 mph - N/A   Clear
9:54 PM 39.0 °F 33.4 °F 25.0 °F 57% 30.35 in 10.0 mi North 8.1 mph - N/A   Clear
10:54 PM 39.9 °F 34.5 °F 26.1 °F 58% 30.36 in 10.0 mi North 8.1 mph - N/A   Clear
11:54 PM 36.0 °F 29.6 °F 24.1 °F 62% 30.38 in 10.0 mi North 8.1 mph - N/A   Clear